Weather in Soshniki

Russia / Ivanovo Oblast     57˚14′00″N   42˚00′13″E
temp.,
°C
wind,
m/s
gust,
m/s
humid.,
%
clouds,
%
prec.,
mm/h
press.,
hPa
HPBL,
m
15 january, fri
fri1500:00−11˚ese3896100 0.3 1008252
03:00−11˚ese369699 0.7 1008156
06:00−13˚ese239688 0.1 100867
09:00−14˚se229788 0.3 100920
12:00−12˚sse129588 0.0 1011121
15:00−13˚ne229794 0.1 101227
18:00−15˚e1198100 0.0 101220
21:00−15˚ne2297100 0.1 101275
16 january, sat
sat1600:00−14˚nne3695100 0.0 1010267
03:00−14˚nne4993100 0.4 1010361
06:00−14˚nne51292100 0.1 1006455
09:00−14˚nne61292100 0.3 1005534
12:00−14˚nne61194100 1.6 1004598
15:00−14˚nne51095100 4.0 1003595
18:00−15˚n5995100 1.7 1003615
21:00−15˚n4895100 2.6 1004585
17 january, sun
sun1700:00−17˚n4893100 0.4 1005461
03:00−19˚nnw4895100 0.4 1007371
06:00−24˚nnw3796100 0.0 1008202
09:00−26˚nnw369774 0.0 1011104
12:00−22˚nnw35955 0.0 1013225
15:00−20˚nnw24963 0.0 1015120
18:00−23˚nnw23960 0.0 101625
21:00−24˚nnw22960 0.0 101820
18 january, mon
mon1800:00−24˚nw12963 0.0 101920
03:00−24˚wnw229640 0.0 101920
06:00−24˚wnw229631 0.0 101920
09:00−24˚wsw239443 0.0 102020
12:00−19˚w239276 0.0 1021150
15:00−19˚wsw229664 0.0 102033
18:00−21˚wsw229984 0.0 102120
21:00−21˚sw239986 0.0 102222
19 january, tue
tue1900:00−21˚w1110092 0.1 102220
03:00−21˚wsw129993 0.1 102220
06:00−22˚nw1210097 0.0 102220
09:00−22˚sw1110096 0.0 102320
12:00−17˚w119497 0.0 1023114
15:00−17˚w119693 0.0 102220
18:00−20˚w1110087 0.0 102320
21:00−20˚w1110085 0.0 102320